sat.trackr.live / text

‹ back to catalog

2025-108C

NORAD 64089 · 2025-108C

PAYLOAD ACTIVE UNKNOWN

§ Identity

Operator
Country
PRC
Launch date
2025-05-21
Launch site
JSC
Launch vehicle
Mass (kg)
RCS (m²)

External: N2YO · Heavens-Above · Gunter

§ Orbital elements

Epoch: 2026-05-25T03:59:35.068704Z

Period
95.17 min
Inclination
97.4689°
Eccentricity
0.0010949
Mean motion
15.13008750 rev/d
Perigee alt
519.5 km
Apogee alt
534.6 km
Semi-major
6,905.2 km
B*
2.6728e-4
RAAN
219.7630°
Arg perigee
114.3248°
Mean anomaly
245.9128°
Rev number
5,578

§ Raw data

2025-108C1 64089U 25108C   26145.16637811  .00004661  00000+0  26728-3 0  99982 64089  97.4689 219.7630 0010949 114.3248 245.9128 15.13008750 55782

JSON: /api/v1/satellites/64089 · /tle

For live sub-satellite position, see the globe view (requires WebGL).

§ Visibility from observer

Set your observer location to see the next 7 days of passes ≥ 10°. The values pass through the URL so the page stays shareable.

No JS? Fill the form by hand. The geolocation button needs JavaScript.